GFSFLT2_prec_precacc24_087.txt.gz
Total_Precipitation_Accumulation
3.03 3.29 1.99 2.01 1.90 0.53 0.30 0.16 0.01 0.00 0.00 0.00 0.00 0.00 0.00 0.00 0.00 0.00 0.00 0.00 0.00 0.00 0.00 0.00 0.00 0.00 0.00 0.00 0.00 0.00 0.00 0.00
5.80 5.47 3.68 2.49 1.94 1.41 0.36 0.23 0.04 0.00 0.00 0.00 0.00 0.00 0.00 0.00 0.00 0.00 0.00 0.00 0.00 0.00 0.00 0.00 0.00 0.00 0.00 0.00 0.00 0.00 0.00 0.00
4.64 6.67 5.38 2.86 1.72 1.70 0.72 0.47 0.09 0.00 0.00 0.00 0.00 0.00 0.00 0.00 0.00 0.00 0.00 0.00 0.00 0.00 0.00 0.00 0.00 0.00 0.00 0.00 0.00 0.00 0.00 0.00
2.53 4.78 6.53 3.95 2.22 0.98 0.70 0.62 0.21 0.01 0.00 0.00 0.00 0.00 0.00 0.01 0.00 0.00 0.00 0.00 0.00 0.00 0.00 0.00 0.00 0.00 0.00 0.00 0.00 0.00 0.00 0.00
1.00 2.18 3.91 3.32 2.57 1.13 0.58 0.57 0.16 0.00 0.00 0.00 0.00 0.00 0.00 0.00 0.00 0.00 0.00 0.00 0.00 0.00 0.00 0.00 0.00 0.00 0.00 0.00 0.00 0.00 0.00 0.00
0.80 0.67 1.56 1.73 1.31 0.79 0.36 0.21 0.06 0.01 0.00 0.00 0.00 0.00 0.00 0.00 0.00 0.00 0.00 0.00 0.00 0.00 0.00 0.00 0.00 0.00 0.00 0.00 0.00 0.00 0.00 0.00
0.92 0.65 0.67 0.77 0.76 0.54 0.20 0.06 0.00 0.00 0.01 0.02 0.00 0.01 0.04 0.04 0.02 0.01 0.01 0.00 0.00 0.00 0.00 0.00 0.00 0.00 0.00 0.00 0.00 0.00 0.00 0.00
0.55 0.71 0.58 0.47 0.41 0.32 0.15 0.03 0.03 0.02 0.06 0.09 0.11 0.14 0.13 0.09 0.04 0.01 0.01 0.00 0.00 0.00 0.00 0.00 0.00 0.00 0.00 0.00 0.00 0.00 0.00 0.00
0.43 0.47 0.57 0.51 0.41 0.15 0.07 0.04 0.04 0.06 0.13 0.21 0.24 0.22 0.16 0.08 0.04 0.01 0.00 0.00 0.00 0.00 0.00 0.00 0.00 0.00 0.00 0.00 0.00 0.00 0.00 0.00
0.24 0.31 0.45 0.38 0.22 0.15 0.07 0.04 0.10 0.17 0.17 0.24 0.26 0.20 0.08 0.08 0.05 0.01 0.00 0.00 0.00 0.00 0.00 0.00 0.00 0.00 0.00 0.00 0.00 0.00 0.00 0.00
0.26 0.24 0.34 0.24 0.14 0.07 0.05 0.06 0.19 0.26 0.28 0.29 0.18 0.20 0.08 0.07 0.04 0.02 0.01 0.00 0.00 0.00 0.00 0.00 0.00 0.00 0.00 0.00 0.00 0.00 0.00 0.00
0.18 0.27 0.23 0.17 0.13 0.05 0.05 0.10 0.21 0.24 0.23 0.31 0.25 0.18 0.24 0.23 0.12 0.03 0.02 0.00 0.00 0.00 0.00 0.00 0.00 0.00 0.00 0.00 0.00 0.00 0.00 0.00
0.04 0.16 0.24 0.10 0.08 0.01 0.02 0.08 0.18 0.24 0.21 0.22 0.15 0.17 0.10 0.18 0.08 0.04 0.00 0.00 0.00 0.00 0.00 0.00 0.00 0.00 0.00 0.00 0.00 0.00 0.00 0.00
0.01 0.07 0.15 0.10 0.06 0.00 0.00 0.03 0.10 0.17 0.23 0.12 0.11 0.19 0.18 0.07 0.02 0.07 0.00 0.00 0.00 0.00 0.00 0.00 0.00 0.00 0.00 0.00 0.00 0.00 0.00 0.00
0.00 0.02 0.11 0.09 0.03 0.04 0.07 0.15 0.14 0.13 0.28 0.20 0.09 0.18 0.28 0.22 0.02 0.02 0.02 0.01 0.00 0.00 0.00 0.00 0.00 0.00 0.00 0.00 0.00 0.00 0.00 0.00
0.00 0.00 0.02 0.09 0.13 0.14 0.14 0.16 0.14 0.09 0.09 0.06 0.07 0.08 0.09 0.07 0.01 0.01 0.01 0.00 0.01 0.00 0.00 0.00 0.00 0.00 0.00 0.00 0.00 0.00 0.00 0.00
0.00 0.01 0.04 0.07 0.12 0.28 0.18 0.17 0.18 0.18 0.09 0.09 0.08 0.10 0.08 0.08 0.02 0.03 0.02 0.00 0.01 0.01 0.01 0.00 0.00 0.00 0.00 0.00 0.00 0.00 0.00 0.00
0.02 0.04 0.10 0.12 0.18 0.26 0.26 0.18 0.14 0.10 0.08 0.09 0.07 0.05 0.06 0.02 0.01 0.00 0.01 0.02 0.05 0.05 0.04 0.02 0.00 0.00 0.00 0.00 0.00 0.00 0.00 0.00
0.06 0.07 0.09 0.14 0.18 0.25 0.20 0.14 0.09 0.08 0.04 0.04 0.04 0.03 0.02 0.02 0.01 0.00 0.01 0.05 0.08 0.06 0.03 0.01 0.00 0.00 0.01 0.02 0.03 0.03 0.02 0.03
0.05 0.03 0.03 0.05 0.08 0.13 0.13 0.13 0.10 0.08 0.07 0.12 0.05 0.03 0.02 0.02 0.03 0.03 0.06 0.08 0.06 0.03 0.02 0.04 0.09 0.17 0.20 0.18 0.13 0.11 0.09 0.05

GFSFLT2_prec_precacc24_093.txt.gz
Total_Precipitation_Accumulation
3.53 4.46 2.29 2.03 2.20 0.82 0.37 0.22 0.15 0.10 0.03 0.01 0.00 0.00 0.00 0.01 0.00 0.00 0.00 0.00 0.00 0.00 0.00 0.00 0.00 0.00 0.00 0.00 0.00 0.00 0.00 0.00
5.54 5.21 3.34 2.23 2.08 1.69 0.48 0.30 0.23 0.15 0.10 0.05 0.01 0.00 0.00 0.00 0.00 0.00 0.00 0.00 0.00 0.00 0.00 0.00 0.00 0.00 0.00 0.00 0.00 0.00 0.00 0.00
3.39 5.35 4.53 2.73 1.84 2.00 0.98 0.66 0.35 0.22 0.20 0.14 0.02 0.00 0.00 0.00 0.00 0.00 0.00 0.00 0.00 0.00 0.00 0.00 0.00 0.00 0.00 0.00 0.00 0.00 0.00 0.00
1.52 4.02 6.23 3.80 2.64 1.69 1.16 0.88 0.57 0.33 0.21 0.16 0.02 0.00 0.00 0.01 0.00 0.00 0.00 0.00 0.00 0.00 0.00 0.00 0.00 0.00 0.00 0.00 0.00 0.00 0.00 0.00
0.43 1.92 3.79 3.40 2.97 2.36 1.50 0.94 0.61 0.40 0.22 0.16 0.05 0.00 0.00 0.00 0.00 0.00 0.00 0.00 0.00 0.00 0.00 0.00 0.00 0.00 0.00 0.00 0.00 0.00 0.00 0.00
0.36 0.41 1.60 1.74 1.63 1.86 1.25 0.64 0.42 0.28 0.21 0.22 0.07 0.00 0.00 0.00 0.00 0.00 0.00 0.00 0.00 0.00 0.00 0.00 0.00 0.00 0.00 0.00 0.00 0.00 0.00 0.00
0.78 0.56 0.74 1.36 1.50 1.44 0.87 0.24 0.16 0.12 0.13 0.19 0.08 0.01 0.04 0.04 0.01 0.00 0.00 0.00 0.00 0.00 0.00 0.00 0.00 0.00 0.00 0.00 0.00 0.00 0.00 0.00
0.55 0.68 0.56 0.83 1.34 0.95 0.72 0.22 0.07 0.07 0.14 0.18 0.18 0.13 0.11 0.07 0.03 0.01 0.01 0.00 0.00 0.00 0.00 0.00 0.00 0.00 0.00 0.00 0.00 0.00 0.00 0.00
0.45 0.47 0.58 0.91 1.14 0.84 0.63 0.37 0.13 0.07 0.17 0.29 0.37 0.20 0.11 0.07 0.04 0.01 0.00 0.00 0.00 0.00 0.00 0.00 0.00 0.00 0.00 0.00 0.00 0.00 0.00 0.00
0.27 0.32 0.45 0.57 0.75 0.72 0.62 0.45 0.23 0.14 0.17 0.30 0.39 0.24 0.08 0.08 0.05 0.01 0.00 0.00 0.00 0.00 0.00 0.00 0.00 0.00 0.00 0.00 0.00 0.00 0.00 0.00
0.29 0.28 0.37 0.35 0.37 0.37 0.43 0.35 0.24 0.19 0.23 0.34 0.22 0.22 0.09 0.07 0.04 0.02 0.01 0.00 0.00 0.00 0.00 0.00 0.00 0.00 0.00 0.00 0.00 0.00 0.00 0.00
0.24 0.30 0.36 0.25 0.22 0.18 0.18 0.16 0.21 0.18 0.18 0.30 0.27 0.19 0.25 0.23 0.12 0.03 0.02 0.00 0.00 0.00 0.00 0.00 0.00 0.00 0.00 0.00 0.00 0.00 0.00 0.00
0.11 0.29 0.45 0.22 0.11 0.10 0.11 0.09 0.15 0.17 0.19 0.22 0.16 0.18 0.12 0.19 0.08 0.04 0.00 0.00 0.00 0.00 0.00 0.01 0.01 0.00 0.00 0.00 0.00 0.00 0.00 0.00
0.02 0.14 0.37 0.16 0.09 0.07 0.11 0.06 0.07 0.15 0.23 0.13 0.12 0.20 0.20 0.09 0.02 0.07 0.00 0.00 0.00 0.01 0.01 0.02 0.01 0.00 0.00 0.00 0.00 0.00 0.00 0.00
0.00 0.02 0.22 0.19 0.05 0.04 0.05 0.15 0.10 0.12 0.27 0.20 0.09 0.18 0.31 0.24 0.04 0.03 0.02 0.01 0.01 0.01 0.01 0.01 0.01 0.00 0.00 0.00 0.00 0.00 0.00 0.00
0.00 0.00 0.03 0.08 0.08 0.03 0.01 0.04 0.05 0.04 0.08 0.06 0.07 0.08 0.10 0.10 0.03 0.02 0.02 0.02 0.01 0.03 0.03 0.03 0.02 0.01 0.00 0.00 0.00 0.00 0.00 0.00
0.00 0.00 0.00 0.01 0.02 0.08 0.01 0.02 0.06 0.14 0.09 0.09 0.08 0.10 0.09 0.08 0.04 0.05 0.04 0.01 0.06 0.06 0.03 0.04 0.05 0.04 0.02 0.01 0.00 0.00 0.00 0.00
0.00 0.00 0.00 0.01 0.01 0.03 0.04 0.02 0.04 0.07 0.08 0.09 0.07 0.05 0.06 0.02 0.01 0.01 0.01 0.02 0.06 0.08 0.13 0.10 0.08 0.05 0.03 0.02 0.01 0.01 0.03 0.03
0.00 0.00 0.00 0.00 0.02 0.12 0.05 0.02 0.04 0.06 0.04 0.04 0.04 0.03 0.02 0.02 0.01 0.00 0.01 0.05 0.06 0.08 0.10 0.09 0.08 0.06 0.06 0.07 0.08 0.07 0.06 0.06
0.00 0.00 0.00 0.01 0.01 0.03 0.03 0.03 0.02 0.08 0.07 0.12 0.05 0.03 0.02 0.01 0.01 0.01 0.01 0.04 0.06 0.04 0.05 0.08 0.15 0.24 0.25 0.23 0.21 0.16 0.11 0.07

GFSFLT2_prec_precacc24_096.txt.gz
Total_Precipitation_Accumulation
3.45 6.19 3.81 2.59 2.67 1.55 1.26 0.47 0.18 0.11 0.03 0.01 0.00 0.00 0.00 0.01 0.00 0.00 0.00 0.00 0.00 0.00 0.00 0.00 0.00 0.00 0.00 0.00 0.00 0.00 0.00 0.00
5.36 5.20 3.81 2.50 2.26 1.91 0.89 0.94 0.51 0.17 0.10 0.05 0.01 0.00 0.00 0.00 0.00 0.00 0.00 0.00 0.00 0.00 0.00 0.00 0.00 0.00 0.00 0.00 0.00 0.00 0.00 0.00
3.07 5.10 4.25 2.62 1.80 2.02 1.22 1.29 0.68 0.24 0.20 0.14 0.02 0.00 0.00 0.00 0.00 0.00 0.00 0.00 0.00 0.00 0.00 0.00 0.00 0.00 0.00 0.00 0.00 0.00 0.00 0.00
1.07 3.47 5.65 3.39 2.44 1.68 1.27 1.12 0.87 0.39 0.22 0.16 0.02 0.01 0.00 0.01 0.00 0.00 0.00 0.00 0.00 0.00 0.00 0.00 0.00 0.00 0.00 0.00 0.00 0.00 0.00 0.00
0.30 1.82 3.72 3.30 2.80 2.27 1.55 1.13 0.87 0.57 0.26 0.17 0.05 0.01 0.01 0.00 0.00 0.00 0.00 0.00 0.00 0.00 0.00 0.00 0.00 0.00 0.00 0.00 0.00 0.00 0.00 0.00
0.29 0.37 1.59 1.76 1.69 1.95 1.45 0.86 0.64 0.46 0.33 0.27 0.09 0.00 0.00 0.00 0.00 0.00 0.00 0.00 0.00 0.00 0.00 0.00 0.00 0.00 0.00 0.00 0.00 0.00 0.00 0.00
0.42 0.34 0.62 1.29 1.49 1.53 1.09 0.51 0.40 0.33 0.29 0.26 0.09 0.01 0.04 0.04 0.01 0.00 0.00 0.00 0.00 0.00 0.00 0.00 0.00 0.00 0.00 0.00 0.00 0.00 0.00 0.00
0.25 0.45 0.47 0.75 1.35 0.97 0.95 0.50 0.20 0.28 0.35 0.22 0.18 0.13 0.10 0.05 0.01 0.00 0.00 0.00 0.00 0.00 0.00 0.00 0.00 0.00 0.00 0.00 0.00 0.00 0.00 0.00
0.36 0.43 0.52 0.84 1.14 0.90 0.76 0.60 0.24 0.14 0.30 0.37 0.37 0.16 0.06 0.03 0.03 0.01 0.00 0.00 0.00 0.00 0.00 0.00 0.00 0.00 0.00 0.00 0.00 0.00 0.00 0.00
0.26 0.31 0.41 0.52 0.78 0.82 0.85 0.66 0.38 0.21 0.23 0.40 0.40 0.20 0.06 0.07 0.05 0.01 0.00 0.00 0.00 0.00 0.00 0.00 0.00 0.00 0.00 0.00 0.00 0.00 0.00 0.00
0.29 0.28 0.32 0.40 0.55 0.55 0.78 0.57 0.42 0.31 0.34 0.50 0.32 0.22 0.09 0.07 0.04 0.02 0.01 0.00 0.00 0.00 0.00 0.00 0.00 0.00 0.00 0.00 0.00 0.00 0.00 0.00
0.25 0.29 0.31 0.28 0.40 0.36 0.69 0.50 0.48 0.41 0.37 0.45 0.37 0.22 0.25 0.23 0.12 0.03 0.02 0.00 0.00 0.00 0.00 0.00 0.00 0.00 0.00 0.00 0.00 0.00 0.00 0.00
0.11 0.29 0.43 0.24 0.14 0.27 0.51 0.36 0.35 0.35 0.37 0.36 0.27 0.21 0.12 0.19 0.08 0.04 0.00 0.00 0.00 0.00 0.00 0.01 0.01 0.01 0.00 0.00 0.00 0.00 0.00 0.00
0.02 0.15 0.36 0.16 0.14 0.18 0.30 0.17 0.18 0.21 0.31 0.20 0.17 0.22 0.21 0.09 0.02 0.07 0.00 0.00 0.00 0.01 0.01 0.02 0.02 0.02 0.01 0.00 0.00 0.00 0.00 0.00
0.00 0.02 0.22 0.18 0.07 0.07 0.12 0.23 0.18 0.14 0.28 0.21 0.11 0.20 0.31 0.24 0.04 0.03 0.02 0.01 0.01 0.01 0.01 0.01 0.02 0.02 0.01 0.00 0.00 0.00 0.00 0.00
0.00 0.00 0.04 0.08 0.08 0.04 0.03 0.09 0.08 0.02 0.05 0.04 0.08 0.09 0.10 0.10 0.03 0.02 0.02 0.02 0.01 0.03 0.03 0.03 0.02 0.02 0.02 0.01 0.00 0.00 0.00 0.00
0.00 0.00 0.00 0.01 0.02 0.08 0.01 0.02 0.05 0.10 0.03 0.05 0.08 0.10 0.09 0.08 0.04 0.05 0.04 0.01 0.06 0.06 0.04 0.04 0.05 0.04 0.04 0.03 0.02 0.00 0.00 0.00
0.00 0.00 0.00 0.01 0.01 0.01 0.02 0.00 0.01 0.01 0.02 0.05 0.06 0.05 0.06 0.02 0.01 0.01 0.01 0.02 0.06 0.07 0.13 0.11 0.10 0.08 0.06 0.04 0.03 0.03 0.03 0.06
0.00 0.00 0.00 0.00 0.00 0.00 0.00 0.01 0.01 0.02 0.01 0.03 0.04 0.03 0.02 0.02 0.01 0.01 0.01 0.05 0.07 0.08 0.11 0.10 0.09 0.07 0.08 0.08 0.09 0.10 0.10 0.14
0.00 0.00 0.00 0.00 0.00 0.00 0.01 0.02 0.01 0.05 0.05 0.11 0.05 0.03 0.02 0.01 0.01 0.01 0.02 0.04 0.06 0.08 0.08 0.09 0.15 0.24 0.25 0.23 0.22 0.19 0.16 0.13

GFSFLT2_prec_precacc24_099.txt.gz
Total_Precipitation_Accumulation
3.37 6.07 3.66 2.98 3.64 3.08 2.37 0.68 0.24 0.15 0.03 0.02 0.00 0.00 0.00 0.01 0.00 0.00 0.00 0.00 0.00 0.00 0.00 0.00 0.00 0.00 0.00 0.00 0.00 0.00 0.00 0.00
5.14 5.02 3.70 2.48 2.89 3.61 2.43 1.89 1.09 0.30 0.13 0.06 0.01 0.00 0.00 0.00 0.00 0.00 0.00 0.00 0.00 0.00 0.00 0.00 0.00 0.00 0.00 0.00 0.00 0.00 0.00 0.00
2.81 4.89 4.13 2.63 2.02 3.03 2.37 2.31 1.58 0.57 0.28 0.14 0.02 0.00 0.00 0.00 0.00 0.00 0.00 0.00 0.00 0.00 0.00 0.00 0.00 0.00 0.00 0.00 0.00 0.00 0.00 0.00
0.81 3.19 5.39 3.29 2.40 1.79 1.80 1.88 2.78 0.77 0.24 0.16 0.02 0.01 0.00 0.01 0.00 0.00 0.00 0.00 0.00 0.00 0.00 0.00 0.00 0.00 0.00 0.00 0.00 0.00 0.00 0.00
0.18 1.60 3.39 2.99 2.59 2.22 1.59 1.24 2.11 1.46 0.35 0.17 0.05 0.03 0.04 0.01 0.00 0.01 0.00 0.00 0.00 0.00 0.00 0.00 0.00 0.00 0.00 0.00 0.00 0.00 0.00 0.00
0.21 0.25 1.52 1.72 1.70 2.01 1.54 0.90 0.86 1.38 0.42 0.30 0.10 0.04 0.06 0.02 0.00 0.00 0.00 0.00 0.00 0.00 0.00 0.00 0.00 0.00 0.00 0.00 0.00 0.00 0.00 0.00
0.25 0.30 0.59 1.31 1.53 1.61 1.17 0.59 0.52 0.60 0.40 0.31 0.12 0.04 0.05 0.03 0.00 0.00 0.00 0.00 0.00 0.00 0.00 0.00 0.00 0.00 0.00 0.00 0.00 0.00 0.00 0.00
0.12 0.23 0.30 0.65 1.31 0.97 0.98 0.56 0.30 0.54 0.54 0.28 0.22 0.09 0.05 0.02 0.01 0.00 0.00 0.00 0.00 0.00 0.00 0.00 0.00 0.00 0.00 0.00 0.00 0.00 0.00 0.00
0.18 0.15 0.21 0.62 1.04 0.90 0.80 0.66 0.37 0.32 0.57 0.47 0.40 0.16 0.04 0.01 0.03 0.00 0.00 0.00 0.00 0.00 0.00 0.00 0.00 0.00 0.00 0.00 0.00 0.00 0.00 0.00
0.14 0.15 0.23 0.40 0.75 0.83 0.88 0.70 0.45 0.33 0.38 0.51 0.50 0.27 0.06 0.07 0.05 0.01 0.00 0.00 0.00 0.00 0.00 0.00 0.00 0.00 0.00 0.00 0.00 0.00 0.00 0.00
0.24 0.20 0.17 0.32 0.52 0.56 0.80 0.59 0.44 0.35 0.43 0.51 0.37 0.28 0.09 0.07 0.04 0.02 0.01 0.00 0.00 0.00 0.00 0.00 0.00 0.00 0.00 0.00 0.00 0.00 0.00 0.00
0.25 0.25 0.20 0.18 0.36 0.39 0.78 0.62 0.50 0.49 0.41 0.49 0.42 0.26 0.28 0.23 0.12 0.03 0.02 0.00 0.00 0.00 0.00 0.00 0.00 0.00 0.00 0.00 0.00 0.00 0.00 0.00
0.11 0.24 0.32 0.19 0.11 0.32 0.77 0.72 0.59 0.57 0.49 0.46 0.40 0.31 0.17 0.21 0.08 0.05 0.00 0.00 0.00 0.00 0.00 0.01 0.01 0.01 0.00 0.00 0.00 0.00 0.00 0.00
0.01 0.10 0.28 0.12 0.14 0.22 0.49 0.54 0.53 0.41 0.46 0.44 0.42 0.36 0.26 0.11 0.03 0.07 0.00 0.00 0.00 0.01 0.01 0.02 0.02 0.02 0.01 0.00 0.00 0.00 0.00 0.00
0.00 0.01 0.16 0.14 0.05 0.10 0.27 0.47 0.46 0.43 0.55 0.49 0.41 0.35 0.35 0.26 0.06 0.03 0.02 0.01 0.01 0.01 0.01 0.01 0.02 0.02 0.02 0.00 0.00 0.00 0.00 0.00
0.00 0.00 0.03 0.05 0.03 0.03 0.10 0.28 0.29 0.25 0.27 0.26 0.25 0.19 0.14 0.11 0.05 0.03 0.02 0.02 0.01 0.03 0.03 0.03 0.02 0.02 0.02 0.01 0.00 0.00 0.00 0.00
0.00 0.00 0.00 0.01 0.01 0.05 0.02 0.07 0.11 0.18 0.15 0.15 0.15 0.15 0.14 0.11 0.06 0.05 0.04 0.02 0.06 0.06 0.04 0.04 0.05 0.04 0.04 0.03 0.02 0.01 0.01 0.01
0.00 0.00 0.00 0.01 0.01 0.00 0.03 0.01 0.01 0.04 0.06 0.05 0.06 0.08 0.09 0.05 0.03 0.02 0.02 0.02 0.06 0.08 0.14 0.11 0.10 0.08 0.06 0.05 0.03 0.03 0.04 0.07
0.00 0.00 0.00 0.00 0.00 0.00 0.00 0.01 0.01 0.00 0.00 0.03 0.02 0.01 0.02 0.03 0.02 0.01 0.02 0.06 0.07 0.09 0.13 0.15 0.10 0.08 0.08 0.12 0.13 0.11 0.11 0.15
0.00 0.00 0.00 0.00 0.00 0.00 0.01 0.02 0.01 0.04 0.04 0.10 0.03 0.02 0.01 0.01 0.01 0.01 0.02 0.04 0.06 0.10 0.15 0.16 0.21 0.29 0.27 0.24 0.24 0.20 0.16 0.13